Regional Weather Roundup
Issued by NWS Midland/Odessa, TX

Skip options and go directly to product.
Home | Oldest Version | Next Version | Current Version | All | Text Only | Save Text | Print | Product List | Glossary On

Skip product version selection by date and time.   
929
ASUS44 KMAF 281201
RWRMAF
MIDLAND AREA WEATHER ROUNDUP
NATIONAL WEATHER SERVICE MIDLAND TX
700 AM CDT THU APR 28 2016

...IN SOUTHWEST TEXAS AND SOUTHEAST NEW MEXICO...

CITY           SKY/WX    TMP DP  RH WIND       PRES   REMARKS
ALPINE         CLEAR     57  24  27 SW3       29.87R
ANDREWS        FAIR      59  32  36 SW8       29.76S
ARTESIA        CLEAR     50  18  27 S6        29.77R
BIG SPRING     CLEAR     50  38  62 E6        29.81R
CARLSBAD       CLEAR     48  17  29 W6        29.75R
DRYDEN           N/A     59  36  42 NE9       29.73S
FORT STOCKTON  CLEAR     60  33  36 SE7       29.75R
GUAD PASS      NOT AVBL
HOBBS          CLEAR     50  28  43 S7        29.78S
MARFA          CLEAR     38  18  44 NE5       29.86R WCI  34
MIDLAND AIRPK  CLEAR     60  32  34 CALM      29.77R
MIDLAND INTL   CLEAR     62  32  32 S8        29.76R
ODESSA         CLEAR     61  31  32 S5        29.77R
PECOS          CLEAR     43  19  38 NW5       29.72S
PRESIDIO       FAIR      62  16  17 MISG      29.75R
SEMINOLE       CLEAR     52  32  46 CALM      29.78S
SNYDER           N/A     52  44  75 E7        29.80R
WINK           CLEAR     54  32  43 E8        29.72F
$$
...OTHER STATIONS IN TEXAS...

CITY           SKY/WX    TMP DP  RH WIND       PRES   REMARKS
ABILENE        CLEAR     56  46  69 SE9       29.80R
AMARILLO       CLOUDY    45  39  79 E9        29.86R
AUSTIN         CLOUDY    67  66  97 S5        29.82R
BROWNSVILLE    CLOUDY    77  76  96 SE3       29.74R FOG
CORPUS CHRISTI CLOUDY    77  72  84 SE10      29.76R
DALLAS FTW     CLEAR     61  52  72 E6        29.83R
DEL RIO        CLOUDY    63  58  83 E7        29.76R
EL PASO        CLOUDY    56  18  22 E8        29.78R
HOUSTON INT    FOG       69  69 100 E6        29.83R VSB<1/4
LUBBOCK        PTCLDY    50  44  80 SE10      29.79R
SAN ANGELO     CLEAR     50  46  86 N8        29.78R
SAN ANTONIO    CLOUDY    69  65  86 E9        29.80S
WACO           CLEAR     59  53  80 E3        29.83R
WICHITA FALLS  NOT AVBL
$$
...OTHER LOCATIONS IN NEW MEXICO...

CITY           SKY/WX    TMP DP  RH WIND       PRES   REMARKS
ALAMAGORDO     PTCLDY    55  18  22 S13       29.79S
ALBUQUERQUE    NOT AVBL
CANNON AFB     CLOUDY    45  38  76 E8        29.80R
CLOVIS         CLOUDY    43  36  75 E8        29.82R WCI  38
HOLLOMAN AFB   PTCLDY    58  17  20 S13       29.78R
ROSWELL        CLOUDY    48  20  32 SE8       29.75R
RUIDOSO          N/A     46  12  25 SE8       29.88S
SANTA FE       CLOUDY    47  28  47 S6        29.83R
TRUTH OR CONSE PTCLDY    55  17  22 SW7       29.76R
TUCUMCARI      PTCLDY    46  35  65 NE7       29.80R
$$

USA.gov is the U.S. government's official web portal to all federal, state and local government web resources and services.